カタログに戻る

CZ-4C DEB

運用中LEO
NORAD 39244·DEBRIS·🇨🇳 China

打ち上げ Sep 1, 2013 から Jiuquan Satellite Launch Center

Loading…

次のパス (今後24時間)

TLE

最新Source: Space-Track

元期: Sep 14, 2026, 16:56 UTC

1 39244U 13046F   26257.70593110  .00000101  00000-0  18250-3 0  9995
2 39244  63.3849 243.1033 0439164  12.5003 348.6504 13.44860107639889

AllMySatでCZ-4C DEBをリアルタイム追跡

Download on the App Store